Weather History for KDXR - October, 2012

Change the Weather History Date:

Friday, October 26, 2012

  Actual Average Record
Temperature  
Mean Temperature 58 °F -  
Max Temperature 63 °F 59 °F 82 °F (1963)
Min Temperature 53 °F 39 °F 23 °F (1952)
Degree Days  
Heating Degree Days 7    
Growing Degree Days 8 (Base 50)    
Moisture  
Dew Point 54 °F    
Average Humidity 85    
Maximum Humidity 96    
Minimum Humidity 75    
Precipitation  
Precipitation 0.00 in - - ()
Sea Level Pressure  
Sea Level Pressure 30.20 in    
Wind  
Wind Speed 1 mph (WSW)    
Max Wind Speed 5 mph    
Max Gust Speed -    
Visibility 10 miles    
Events      
Averages and records for this station are not official NWS values.
T = Trace of Precipitation, MM = Missing Value Source: NWS Daily Summary

Daily Weather History Graph

Daily Weather History Graph

Search for Another Location

Airport or City:

Trip Planner

Search our weather history database for the weather conditions in past years. The results will help you decide how hot, cold, wet, or windy it might be!

Date:

Astronomy

Oct. 26, 2012 Rise Set
Actual Time 7:18 AM EDT 5:56 PM EDT
Civil Twilight 6:50 AM EDT 6:24 PM EDT
Nautical Twilight 6:18 AM EDT 6:56 PM EDT
Astronomical Twilight 5:45 AM EDT 7:29 PM EDT
Moon 4:12 PM EDT (10/26) 4:10 AM EDT (10/26)
Length of Visible Light 11h 34m
Length of Day
10h 37m
Waxing Gibbous, 91% of the Moon is Illuminated
Oct 26
Waxing Gibbous
Oct 29
Full
Nov 6
Last Quarter
Nov 13
New
Nov 20
First Quarter

Hourly Weather History & Observations

Time (EDT) Temp. Dew Point Humidity Pressure Visibility Wind Dir Wind Speed Gust Speed Precip Events Conditions
1:53 AM 55.0 °F 52.0 °F 89% 30.25 in 10.0 mi SSE 3.5 mph - N/A   Overcast
2:53 AM 55.9 °F 51.1 °F 84% 30.24 in 10.0 mi Calm Calm - N/A   Overcast
3:53 AM 55.0 °F 53.1 °F 93% 30.24 in 10.0 mi Calm Calm - N/A   Overcast
4:53 AM 55.9 °F 52.0 °F 87% 30.24 in 10.0 mi Calm Calm - N/A   Overcast
5:53 AM 55.0 °F 52.0 °F 89% 30.24 in 9.0 mi Calm Calm - N/A   Overcast
6:53 AM 53.1 °F 52.0 °F 96% 30.23 in 10.0 mi Calm Calm - N/A   Overcast
7:53 AM 54.0 °F 52.0 °F 93% 30.24 in 10.0 mi WSW 3.5 mph - N/A   Overcast
9:53 AM 57.0 °F 53.1 °F 87% 30.25 in 10.0 mi Calm Calm - N/A   Overcast
10:53 AM 57.9 °F 54.0 °F 87% 30.24 in 10.0 mi Calm Calm - N/A   Overcast
11:53 AM 60.1 °F 54.0 °F 80% 30.24 in 10.0 mi West 4.6 mph - N/A   Overcast
12:53 PM 61.0 °F 55.0 °F 81% 30.22 in 10.0 mi WSW 4.6 mph - N/A   Overcast
1:53 PM 62.1 °F 55.0 °F 78% 30.19 in 10.0 mi WSW 3.5 mph - N/A   Overcast
2:53 PM 63.0 °F 55.0 °F 75% 30.17 in 10.0 mi West 3.5 mph - N/A   Overcast
3:53 PM 63.0 °F 55.9 °F 78% 30.16 in 10.0 mi Calm Calm - N/A   Overcast
4:53 PM 62.1 °F 55.0 °F 78% 30.15 in 10.0 mi Calm Calm - N/A   Overcast
5:53 PM 61.0 °F 55.0 °F 81% 30.15 in 10.0 mi Calm Calm - N/A   Overcast
6:53 PM 61.0 °F 55.0 °F 81% 30.15 in 10.0 mi Calm Calm - N/A   Overcast
7:53 PM 60.1 °F 55.9 °F 86% 30.16 in 9.0 mi Calm Calm - N/A   Overcast
8:53 PM 59.0 °F 55.9 °F 90% 30.16 in 9.0 mi Calm Calm - N/A   Overcast
9:53 PM 59.0 °F 55.9 °F 90% 30.16 in 9.0 mi Calm Calm - N/A   Overcast
10:53 PM 59.0 °F 55.9 °F 90% 30.15 in 8.0 mi Calm Calm - N/A   Overcast
11:53 PM 59.0 °F 55.0 °F 87% 30.13 in 9.0 mi Calm Calm - N/A   Overcast